Volver al catálogo

STARLINK-33886

ActivoComunicacionesVLEO
NORAD 63681·PAYLOAD·🇺🇸 United States

Lanzado Apr 28, 2025 desde Cape Canaveral Space Force Station

Loading…

Próximos Pases (próximas 24 horas)

TLE

ActualizadoSource: CelesTrak SupGP

Época: Sep 14, 2026, 22:39 UTC

1 63681C 25085T   26257.94423611  .00032021  00000+0  11596-2 0  2574
2 63681  43.0024  41.6074 0001660 275.6265 302.7313 15.27568430    18

Sigue STARLINK-33886 en tiempo real con AllMySat

Download on the App Store